Voltar ao catálogo

STARLINK-32378

AtivoComunicaçõesVLEO
NORAD 61064·PAYLOAD·🇺🇸 United States

Lançado Sep 13, 2024 de Vandenberg Space Force Base

Loading…

Próximas Passagens (próximas 24 horas)

TLE

AtualizadoSource: CelesTrak SupGP

Época: Sep 14, 2026, 20:50 UTC

1 61064C 24164Q   26257.86854167  .00013138  00000+0  42265-3 0  2575
2 61064  53.1593 291.0941 0001084  69.5214 165.3338 15.31682836    14

Acompanhe STARLINK-32378 em tempo real com AllMySat

Download on the App Store